sat.trackr.live / text

‹ back to catalog

STARLINK-34052

NORAD 63874 · 2025-094L

PAYLOAD ACTIVE UNKNOWN

§ Identity

Operator
Country
US
Launch date
2025-05-10
Launch site
AFWTR
Launch vehicle
Mass (kg)
RCS (m²)

Purposes: comms

External: N2YO · Heavens-Above · Gunter

§ Orbital elements

Epoch: 2026-05-25T03:40:56.890272Z

Period
96.11 min
Inclination
70.0024°
Eccentricity
0.0002874
Mean motion
14.98338547 rev/d
Perigee alt
570.0 km
Apogee alt
574.0 km
Semi-major
6,950.2 km
B*
2.7274e-4
RAAN
41.7903°
Arg perigee
249.5892°
Mean anomaly
110.4959°
Rev number
5,865

§ Raw data

STARLINK-340521 63874U 25094L   26145.15343623  .00003164  00000+0  27274-3 0  99912 63874  70.0024  41.7903 0002874 249.5892 110.4959 14.98338547 58652

JSON: /api/v1/satellites/63874 · /tle

For live sub-satellite position, see the globe view (requires WebGL).

§ Visibility from observer

Set your observer location to see the next 7 days of passes ≥ 10°. The values pass through the URL so the page stays shareable.

No JS? Fill the form by hand. The geolocation button needs JavaScript.